TimeEDT,TemperatureF,Dew PointF,Humidity,Sea Level PressureIn,VisibilityMPH,Wind Direction,Wind SpeedMPH,Gust SpeedMPH,PrecipitationIn,Events,Conditions,WindDirDegrees,DateUTC
12:54 AM,71.1,68.0,90,29.96,-9999.0,Calm,Calm,-,N/A,,Unknown,0,2013-09-12 04:54:00
1:54 AM,70.0,66.9,90,29.95,-9999.0,Calm,Calm,-,N/A,,Unknown,0,2013-09-12 05:54:00
2:54 AM,69.1,66.9,93,29.94,-9999.0,Calm,Calm,-,N/A,,Unknown,0,2013-09-12 06:54:00
3:54 AM,69.1,68.0,96,29.93,-9999.0,Calm,Calm,-,N/A,,Unknown,0,2013-09-12 07:54:00
4:54 AM,70.0,68.0,93,29.93,-9999.0,Calm,Calm,-,N/A,,Unknown,0,2013-09-12 08:54:00
5:54 AM,70.0,68.0,93,29.92,-9999.0,Calm,Calm,-,N/A,,Unknown,0,2013-09-12 09:54:00
6:54 AM,70.0,68.0,93,29.92,-9999.0,Calm,Calm,-,N/A,,Unknown,0,2013-09-12 10:54:00
7:54 AM,72.0,69.1,91,29.92,-9999.0,Calm,Calm,-,N/A,,Unknown,0,2013-09-12 11:54:00
8:54 AM,73.0,70.0,90,29.91,-9999.0,Calm,Calm,-,N/A,,Unknown,0,2013-09-12 12:54:00
9:54 AM,75.0,71.1,87,29.89,-9999.0,Calm,Calm,-,N/A,,Unknown,0,2013-09-12 13:54:00
10:54 AM,77.0,71.1,82,29.88,-9999.0,Variable,4.6,-,N/A,,Unknown,0,2013-09-12 14:54:00
11:54 AM,75.0,72.0,90,29.86,-9999.0,Calm,Calm,-,0.03,,Unknown,0,2013-09-12 15:54:00
12:54 PM,75.0,71.1,87,29.85,-9999.0,SSW,5.8,-,N/A,,Unknown,210,2013-09-12 16:54:00
1:54 PM,77.0,72.0,84,29.82,-9999.0,SW,4.6,-,N/A,,Unknown,220,2013-09-12 17:54:00
2:54 PM,81.0,72.0,74,29.78,-9999.0,SSW,4.6,-,N/A,,Unknown,200,2013-09-12 18:54:00
3:54 PM,82.9,73.0,72,29.74,-9999.0,SW,11.5,16.1,N/A,,Unknown,230,2013-09-12 19:54:00
4:54 PM,82.9,72.0,69,29.71,-9999.0,SW,8.1,-,N/A,,Unknown,230,2013-09-12 20:54:00
5:54 PM,80.1,73.0,79,29.70,-9999.0,Calm,Calm,-,N/A,,Unknown,0,2013-09-12 21:54:00
8:54 PM,-9999,-9999,N/A,29.76,-9999.0,North,-9999.0,-,N/A,,Unknown,0,2013-09-13 00:54:00
9:54 PM,66.9,66.0,97,29.74,-9999.0,Calm,Calm,-,N/A,,Unknown,0,2013-09-13 01:54:00
10:54 PM,66.9,66.0,97,29.73,-9999.0,SW,3.5,-,N/A,,Unknown,230,2013-09-13 02:54:00
11:54 PM,66.9,66.0,97,29.72,-9999.0,Calm,Calm,-,N/A,,Unknown,0,2013-09-13 03:54:00